Regional Weather Roundup
Issued by NWS

Home | Current Version | Previous Version | Graphics & Text | Print | Product List | Glossary Off
Versions: 1 2 3 4 5 6 7 8 9 10 11 12 13 14 15 16 17 18 19 20 21 22 23 24 25 26 27 28 29 30 31 32 33 34 35 36 37 38 39 40 41 42 43 44 45 46 47 48 49 50

000
ASUS43 KTOP 230108
RWRKS

WEATHER ROUNDUP FOR KANSAS
NATIONAL WEATHER SERVICE GOODLAND KS
700 PM CST WED NOV 22 2017

NOTE:  "FAIR" INDICATES FEW OR NO CLOUDS BELOW 12,000 FEET WITH NO
SIGNIFICANT WEATHER AND/OR OBSTRUCTIONS TO VISIBILITY.

KSZ001>006-013>018-027>032-041>047-230200-
NORTHWEST KANSAS

CITY           SKY/WX    TMP DP  RH WIND       PRES   REMARKS
GOODLAND       CLOUDY    49  35  58 W8        30.14R
HAYS           CLEAR     47  27  45 S7        30.11S
HILL CITY      CLEAR     54  34  46 SW7       30.09S
RUSSELL        CLEAR     47  24  40 S14       30.10S
$$

KSZ061>065-074>080-084>089-230200-
SOUTHWEST KANSAS

CITY           SKY/WX    TMP DP  RH WIND       PRES   REMARKS
DODGE CITY     CLOUDY    45  29  53 S9        30.15S
ELKHART        CLOUDY    51  34  52 S8        30.18S
GARDEN CITY    CLEAR     48  32  53 S8        30.15R
GREAT BEND     CLEAR     44  22  41 S12       30.14S
LIBERAL        CLEAR     45  30  55 CALM      30.17S
PRATT          CLEAR     42  17  36 S13       30.16S
$$

KSZ066>073-081>083-090>101-230200-
SOUTHEAST KANSAS

CITY           SKY/WX    TMP DP  RH WIND       PRES   REMARKS
CHANUTE        CLOUDY    33  21  61 S7        30.23F
COFFEYVILLE    CLOUDY    35  23  61 SE5       30.25F
HUTCHINSON     CLEAR     38  20  48 S9        30.17F
MEDICINE LODGE   N/A     41  20  43 S8        30.18F
NEWTON         CLOUDY    38  19  46 S10       30.19F WCI  31
PARSONS        CLOUDY    33  21  61 SE3       30.25F
WICHITA INTL   PTCLDY    37  21  52 S9        30.20F
WICHITA JABRA  CLOUDY    40  20  44 S9        30.21S
WICHITA MCCONL CLOUDY    38  19  45 SW9       30.21S
WINFIELD       CLOUDY    37  20  50 S6        30.24F
$$

KSZ007>012-019>026-033>040-048>060-102>105-230200-
NORTHEAST KANSAS

CITY           SKY/WX    TMP DP  RH WIND       PRES   REMARKS
CONCORDIA      CLEAR     42  20  41 S12       30.12S
EMPORIA        CLEAR     35  17  47 S8        30.20R
LAWRENCE       CLEAR     33  19  56 E5        30.22R
MANHATTAN      CLEAR     39  20  46 S6        30.18S
MARYSVILLE     CLEAR     39  21  48 S6        30.15R
OLATHE IND     CLEAR     33  19  56 S3        30.21F
OLATHE EXE     CLEAR     33  19  56 S6        30.20F
SALINA         CLEAR     42  21  43 S9        30.16S
TOPEKA BILLARD CLEAR     39  19  44 S3        30.20R
TOPEKA FORBES  CLEAR     38  18  44 S10       30.18S WCI  31
$$




USA.gov is the U.S. government's official web portal to all federal, state and local government web resources and services.